Location: Eberbach
(49.4690°N, 8.9930°E)
Time: 22:24:43
(UTC+02:00)

ISS - Pass Details

Date: 01 October 2021
Orbit: 417 x 423 km, 51.6° (Epoch: 27 October)

Event Time Altitude Azimuth Distance (km) Brightness Sun altitude
Rises 20:15:55 0° 289° (WNW) 2,366 2.0 -12.7°
Reaches altitude 10° 20:18:02 10° 287° (WNW) 1,501 0.5 -13.1°
Maximum altitude 20:21:22 68° 204° (SSW) 454 -3.6 -13.6°
Enters shadow 20:23:10 25° 126° (SE) 887 -2.6 -13.9°
